TimePDT,TemperatureF,Dew PointF,Humidity,Sea Level PressureIn,VisibilityMPH,Wind Direction,Wind SpeedMPH,Gust SpeedMPH,PrecipitationIn,Events,Conditions,WindDirDegrees,DateUTC
12:58 AM,54.7,50.7,86,29.97,10.0,South,2.3,-,N/A,,Clear,170,2012-09-06 07:58:00
1:58 AM,52.0,49.3,90,29.97,10.0,South,2.3,-,N/A,,Clear,170,2012-09-06 08:58:00
2:58 AM,51.4,49.5,93,29.97,10.0,Calm,Calm,-,N/A,,Clear,40,2012-09-06 09:58:00
3:58 AM,48.9,47.3,94,29.99,10.0,SSE,2.3,-,N/A,,Clear,150,2012-09-06 10:58:00
4:58 AM,49.3,47.8,95,29.99,10.0,Calm,Calm,-,N/A,,Clear,80,2012-09-06 11:58:00
5:58 AM,48.7,48.0,97,30.00,10.0,South,2.3,-,N/A,,Clear,170,2012-09-06 12:58:00
6:58 AM,48.0,47.3,97,30.01,10.0,Calm,Calm,-,N/A,,Clear,10,2012-09-06 13:58:00
7:58 AM,53.2,51.3,93,30.02,10.0,Calm,Calm,-,N/A,,Clear,0,2012-09-06 14:58:00
8:58 AM,63.0,55.0,75,30.03,10.0,NE,4.6,-,N/A,,Clear,50,2012-09-06 15:58:00
9:58 AM,66.4,55.0,67,30.04,10.0,Variable,5.8,-,N/A,,Clear,0,2012-09-06 16:58:00
10:58 AM,69.4,55.0,60,30.05,10.0,Variable,3.5,-,N/A,,Clear,0,2012-09-06 17:58:00
11:58 AM,72.5,54.3,53,30.05,10.0,NNE,6.9,-,N/A,,Clear,30,2012-09-06 18:58:00
12:58 PM,76.3,52.9,44,30.04,10.0,Variable,4.6,-,N/A,,Clear,0,2012-09-06 19:58:00
1:58 PM,77.9,52.9,42,30.03,10.0,North,9.2,-,N/A,,Clear,10,2012-09-06 20:58:00
2:58 PM,79.9,51.4,37,30.03,10.0,NNE,10.4,-,N/A,,Clear,20,2012-09-06 21:58:00
3:58 PM,81.0,49.8,34,30.02,10.0,NE,9.2,-,N/A,,Clear,40,2012-09-06 22:58:00
4:58 PM,80.4,48.4,32,30.02,10.0,NNE,8.1,-,N/A,,Clear,30,2012-09-06 23:58:00
5:58 PM,78.4,48.2,34,30.01,10.0,NE,6.9,-,N/A,,Clear,40,2012-09-07 00:58:00
6:58 PM,76.3,48.0,37,30.01,10.0,NNE,5.8,-,N/A,,Clear,20,2012-09-07 01:58:00
7:58 PM,72.1,49.1,44,30.01,10.0,NE,3.5,-,N/A,,Clear,40,2012-09-07 02:58:00
8:58 PM,69.4,50.9,52,30.03,10.0,Calm,Calm,-,N/A,,Clear,20,2012-09-07 03:58:00
9:58 PM,67.5,50.5,55,30.05,10.0,ENE,1.2,-,N/A,,Clear,60,2012-09-07 04:58:00
10:58 PM,59.0,51.3,75,30.06,10.0,Calm,Calm,-,N/A,,Clear,0,2012-09-07 05:58:00
11:58 PM,56.3,50.5,81,30.07,10.0,Calm,Calm,-,N/A,,Clear,0,2012-09-07 06:58:00